Year,Month,Day,Hour,Minute,Value (Times are PST for temperature in C)
2018,07,18,00,00,18.40
2018,07,18,00,01,18.40
2018,07,18,00,02,18.30
2018,07,18,00,03,18.30
2018,07,18,00,04,18.30
2018,07,18,00,05,18.30
2018,07,18,00,06,18.30
2018,07,18,00,07,18.30
2018,07,18,00,08,18.30
2018,07,18,00,09,18.30
2018,07,18,00,10,18.30
2018,07,18,00,11,18.20
2018,07,18,00,12,18.20
2018,07,18,00,13,18.20
2018,07,18,00,14,18.20
2018,07,18,00,15,18.20
2018,07,18,00,16,18.20
2018,07,18,00,17,18.20
2018,07,18,00,18,18.20
2018,07,18,00,19,18.20
2018,07,18,00,20,18.10
2018,07,18,00,21,18.10
2018,07,18,00,22,18.10
2018,07,18,00,23,18.10
2018,07,18,00,24,18.10
2018,07,18,00,25,18.10
2018,07,18,00,26,18.10
2018,07,18,00,27,18.00
2018,07,18,00,28,18.00
2018,07,18,00,29,18.00
2018,07,18,00,30,18.00
2018,07,18,00,31,18.00
2018,07,18,00,32,17.90
2018,07,18,00,33,17.90
2018,07,18,00,34,17.90
2018,07,18,00,35,17.90
2018,07,18,00,36,17.90
2018,07,18,00,37,17.90
2018,07,18,00,38,17.90
2018,07,18,00,39,17.90
2018,07,18,00,40,17.90
2018,07,18,00,41,17.90
2018,07,18,00,42,17.80
2018,07,18,00,43,17.80
2018,07,18,00,44,17.80
2018,07,18,00,45,17.80
2018,07,18,00,46,17.80
2018,07,18,00,47,17.80
2018,07,18,00,48,17.80
2018,07,18,00,49,17.80
2018,07,18,00,50,17.80
2018,07,18,00,51,17.80
2018,07,18,00,52,17.80
2018,07,18,00,53,17.80
2018,07,18,00,54,17.80
2018,07,18,00,55,17.80
2018,07,18,00,56,17.80
2018,07,18,00,57,17.80
2018,07,18,00,58,17.80
2018,07,18,00,59,17.80
2018,07,18,01,00,17.80
2018,07,18,01,01,17.80
2018,07,18,01,02,17.80
2018,07,18,01,03,17.80
2018,07,18,01,04,17.80
2018,07,18,01,05,17.80
2018,07,18,01,06,17.80
2018,07,18,01,07,17.70
2018,07,18,01,08,17.70
2018,07,18,01,09,17.70
2018,07,18,01,10,17.70
2018,07,18,01,11,17.70
2018,07,18,01,12,17.70
2018,07,18,01,13,17.70
2018,07,18,01,14,17.70
2018,07,18,01,15,17.70
2018,07,18,01,16,17.60
2018,07,18,01,17,17.60
2018,07,18,01,18,17.60
2018,07,18,01,19,17.60
2018,07,18,01,20,17.60
2018,07,18,01,21,17.60
2018,07,18,01,22,17.50
2018,07,18,01,23,17.50
2018,07,18,01,24,17.50
2018,07,18,01,25,17.50
2018,07,18,01,26,17.50
2018,07,18,01,27,17.50
2018,07,18,01,28,17.50
2018,07,18,01,29,17.40
2018,07,18,01,30,17.40
2018,07,18,01,31,17.40
2018,07,18,01,32,17.40
2018,07,18,01,33,17.40
2018,07,18,01,34,17.40
2018,07,18,01,35,17.40
2018,07,18,01,36,17.40
2018,07,18,01,37,17.40
2018,07,18,01,38,17.40
2018,07,18,01,39,17.40
2018,07,18,01,40,17.40
2018,07,18,01,41,17.40
2018,07,18,01,42,17.40
2018,07,18,01,43,17.40
2018,07,18,01,44,17.30
2018,07,18,01,45,17.30
2018,07,18,01,46,17.30
2018,07,18,01,47,17.30
2018,07,18,01,48,17.30
2018,07,18,01,49,17.30
2018,07,18,01,50,17.30
2018,07,18,01,51,17.30
2018,07,18,01,52,17.30
2018,07,18,01,53,17.30
2018,07,18,01,54,17.30
2018,07,18,01,55,17.30
2018,07,18,01,56,17.30
2018,07,18,01,57,17.20
2018,07,18,01,58,17.20
2018,07,18,01,59,17.20
2018,07,18,02,00,17.20
2018,07,18,02,01,17.20
2018,07,18,02,02,17.20
2018,07,18,02,03,17.20
2018,07,18,02,04,17.20
2018,07,18,02,05,17.20
2018,07,18,02,06,17.20
2018,07,18,02,07,17.10
2018,07,18,02,08,17.10
2018,07,18,02,09,17.10
2018,07,18,02,10,17.10
2018,07,18,02,11,17.10
2018,07,18,02,12,17.10
2018,07,18,02,13,17.10
2018,07,18,02,14,17.00
2018,07,18,02,15,17.00
2018,07,18,02,16,17.00
2018,07,18,02,17,17.00
2018,07,18,02,18,17.00
2018,07,18,02,19,16.90
2018,07,18,02,20,16.90
2018,07,18,02,21,16.90
2018,07,18,02,22,16.90
2018,07,18,02,23,16.90
2018,07,18,02,24,16.90
2018,07,18,02,25,16.90
2018,07,18,02,26,16.80
2018,07,18,02,27,16.80
2018,07,18,02,28,16.80
2018,07,18,02,29,16.80
2018,07,18,02,30,16.80
2018,07,18,02,31,16.80
2018,07,18,02,32,16.80
2018,07,18,02,33,16.80
2018,07,18,02,34,16.80
2018,07,18,02,35,16.70
2018,07,18,02,36,16.70
2018,07,18,02,37,16.70
2018,07,18,02,38,16.70
2018,07,18,02,39,16.70
2018,07,18,02,40,16.70
2018,07,18,02,41,16.70
2018,07,18,02,42,16.70
2018,07,18,02,43,16.60
2018,07,18,02,44,16.60
2018,07,18,02,45,16.60
2018,07,18,02,46,16.60
2018,07,18,02,47,16.60
2018,07,18,02,48,16.60
2018,07,18,02,49,16.60
2018,07,18,02,50,16.60
2018,07,18,02,51,16.60
2018,07,18,02,52,16.50
2018,07,18,02,53,16.50
2018,07,18,02,54,16.50
2018,07,18,02,55,16.50
2018,07,18,02,56,16.50
2018,07,18,02,57,16.40
2018,07,18,02,58,16.40
2018,07,18,02,59,16.40
2018,07,18,03,00,16.40
2018,07,18,03,01,16.40
2018,07,18,03,02,16.40
2018,07,18,03,03,16.40
2018,07,18,03,04,16.40
2018,07,18,03,05,16.40
2018,07,18,03,06,16.30
2018,07,18,03,07,16.30
2018,07,18,03,08,16.30
2018,07,18,03,09,16.30
2018,07,18,03,10,16.30
2018,07,18,03,11,16.30
2018,07,18,03,12,16.30
2018,07,18,03,13,16.30
2018,07,18,03,14,16.20
2018,07,18,03,15,16.20
2018,07,18,03,16,16.20
2018,07,18,03,17,16.20
2018,07,18,03,18,16.20
2018,07,18,03,19,16.20
2018,07,18,03,20,16.10
2018,07,18,03,21,16.10
2018,07,18,03,22,16.10
2018,07,18,03,23,16.10
2018,07,18,03,24,16.10
2018,07,18,03,25,16.10
2018,07,18,03,26,16.00
2018,07,18,03,27,16.00
2018,07,18,03,28,16.00
2018,07,18,03,29,16.00
2018,07,18,03,30,15.90
2018,07,18,03,31,15.90
2018,07,18,03,32,15.90
2018,07,18,03,33,15.90
2018,07,18,03,34,15.90
2018,07,18,03,35,15.80
2018,07,18,03,36,15.80
2018,07,18,03,37,15.80
2018,07,18,03,38,15.80
2018,07,18,03,39,15.80
2018,07,18,03,40,15.80
2018,07,18,03,41,15.80
2018,07,18,03,42,15.80
2018,07,18,03,43,15.80
2018,07,18,03,44,15.80
2018,07,18,03,45,15.70
2018,07,18,03,46,15.70
2018,07,18,03,47,15.70
2018,07,18,03,48,15.70
2018,07,18,03,49,15.70
2018,07,18,03,50,15.70
2018,07,18,03,51,15.70
2018,07,18,03,52,15.70
2018,07,18,03,53,15.60
2018,07,18,03,54,15.60
2018,07,18,03,55,15.60
2018,07,18,03,56,15.60
2018,07,18,03,57,15.60
2018,07,18,03,58,15.60
2018,07,18,03,59,15.60
2018,07,18,04,00,15.50
2018,07,18,04,01,15.50
2018,07,18,04,02,15.50
2018,07,18,04,03,15.50
2018,07,18,04,04,15.50
2018,07,18,04,05,15.40
2018,07,18,04,06,15.40
2018,07,18,04,07,15.40
2018,07,18,04,08,15.40
2018,07,18,04,09,15.40
2018,07,18,04,10,15.40
2018,07,18,04,11,15.40
2018,07,18,04,12,15.30
2018,07,18,04,13,15.30
2018,07,18,04,14,15.30
2018,07,18,04,15,15.30
2018,07,18,04,16,15.30
2018,07,18,04,17,15.30
2018,07,18,04,18,15.30
2018,07,18,04,19,15.30
2018,07,18,04,20,15.30
2018,07,18,04,21,15.30
2018,07,18,04,22,15.30
2018,07,18,04,23,15.30
2018,07,18,04,24,15.30
2018,07,18,04,25,15.30
2018,07,18,04,26,15.30
2018,07,18,04,27,15.30
2018,07,18,04,28,15.30
2018,07,18,04,29,15.30
2018,07,18,04,30,15.30
2018,07,18,04,31,15.30
2018,07,18,04,32,15.30
2018,07,18,04,33,15.30
2018,07,18,04,34,15.30
2018,07,18,04,35,15.30
2018,07,18,04,36,15.30
2018,07,18,04,37,15.30
2018,07,18,04,38,15.30
2018,07,18,04,39,15.30
2018,07,18,04,40,15.30
2018,07,18,04,41,15.30
2018,07,18,04,42,15.30
2018,07,18,04,43,15.30
2018,07,18,04,44,15.30
2018,07,18,04,45,15.30
2018,07,18,04,46,15.30
2018,07,18,04,47,15.30
2018,07,18,04,48,15.30
2018,07,18,04,49,15.30
2018,07,18,04,50,15.30
2018,07,18,04,51,15.30
2018,07,18,04,52,15.30
2018,07,18,04,53,15.20
2018,07,18,04,54,15.20
2018,07,18,04,55,15.20
2018,07,18,04,56,15.20
2018,07,18,04,57,15.20
2018,07,18,04,58,15.20
2018,07,18,04,59,15.20
2018,07,18,05,00,15.20
2018,07,18,05,01,15.10
2018,07,18,05,02,15.10
2018,07,18,05,03,15.10
2018,07,18,05,04,15.10
2018,07,18,05,05,15.10
2018,07,18,05,06,15.10
2018,07,18,05,07,15.00
2018,07,18,05,08,15.00
2018,07,18,05,09,15.00
2018,07,18,05,10,15.00
2018,07,18,05,11,14.90
2018,07,18,05,12,14.90
2018,07,18,05,13,14.90
2018,07,18,05,14,14.90
2018,07,18,05,15,14.90
2018,07,18,05,16,14.90
2018,07,18,05,17,14.80
2018,07,18,05,18,14.80
2018,07,18,05,19,14.80
2018,07,18,05,20,14.80
2018,07,18,05,21,14.80
2018,07,18,05,22,14.80
2018,07,18,05,23,14.70
2018,07,18,05,24,14.70
2018,07,18,05,25,14.70
2018,07,18,05,26,14.70
2018,07,18,05,27,14.70
2018,07,18,05,28,14.60
2018,07,18,05,29,14.60
2018,07,18,05,30,14.60
2018,07,18,05,31,14.60
2018,07,18,05,32,14.50
2018,07,18,05,33,14.50
2018,07,18,05,34,14.50
2018,07,18,05,35,14.50
2018,07,18,05,36,14.40
2018,07,18,05,37,14.40
2018,07,18,05,38,14.40
2018,07,18,05,39,14.40
2018,07,18,05,40,14.40
2018,07,18,05,41,14.30
2018,07,18,05,42,14.30
2018,07,18,05,43,14.30
2018,07,18,05,44,14.30
2018,07,18,05,45,14.30
2018,07,18,05,46,14.20
2018,07,18,05,47,14.20
2018,07,18,05,48,14.20
2018,07,18,05,49,14.20
2018,07,18,05,50,14.20
2018,07,18,05,51,14.20
2018,07,18,05,52,14.20
2018,07,18,05,53,14.20
2018,07,18,05,54,14.10
2018,07,18,05,55,14.10
2018,07,18,05,56,14.10
2018,07,18,05,57,14.10
2018,07,18,05,58,14.10
2018,07,18,05,59,14.10
2018,07,18,06,00,14.10
2018,07,18,06,01,14.10
2018,07,18,06,02,14.10
2018,07,18,06,03,14.00
2018,07,18,06,04,14.00
2018,07,18,06,05,14.00
2018,07,18,06,06,14.00
2018,07,18,06,07,14.00
2018,07,18,06,08,14.00
2018,07,18,06,09,14.00
2018,07,18,06,10,14.10
2018,07,18,06,11,14.10
2018,07,18,06,12,14.10
2018,07,18,06,13,14.10
2018,07,18,06,14,14.10
2018,07,18,06,15,14.20
2018,07,18,06,16,14.20
2018,07,18,06,17,14.20
2018,07,18,06,18,14.20
2018,07,18,06,19,14.30
2018,07,18,06,20,14.30
2018,07,18,06,21,14.30
2018,07,18,06,22,14.30
2018,07,18,06,23,14.30
2018,07,18,06,24,14.30
2018,07,18,06,25,14.30
2018,07,18,06,26,14.40
2018,07,18,06,27,14.40
2018,07,18,06,28,14.30
2018,07,18,06,29,14.30
2018,07,18,06,30,14.30
2018,07,18,06,31,14.30
2018,07,18,06,32,14.30
2018,07,18,06,33,14.30
2018,07,18,06,34,14.30
2018,07,18,06,35,14.30
2018,07,18,06,36,14.30
2018,07,18,06,37,14.30
2018,07,18,06,38,14.30
2018,07,18,06,39,14.30
2018,07,18,06,40,14.30
2018,07,18,06,41,14.30
2018,07,18,06,42,14.20
2018,07,18,06,43,14.20
2018,07,18,06,44,14.20
2018,07,18,06,45,14.20
2018,07,18,06,46,14.20
2018,07,18,06,47,14.20
2018,07,18,06,48,14.20
2018,07,18,06,49,14.10
2018,07,18,06,50,14.10
2018,07,18,06,51,14.10
2018,07,18,06,52,14.10
2018,07,18,06,53,14.10
2018,07,18,06,54,14.10
2018,07,18,06,55,14.10
2018,07,18,06,56,14.10
2018,07,18,06,57,14.00
2018,07,18,06,58,14.00
2018,07,18,06,59,14.00
2018,07,18,07,00,14.00
2018,07,18,07,01,14.00
2018,07,18,07,02,13.90
2018,07,18,07,03,13.90
2018,07,18,07,04,13.90
2018,07,18,07,05,13.90
2018,07,18,07,06,13.90
2018,07,18,07,07,13.90
2018,07,18,07,08,13.90
2018,07,18,07,09,13.90
2018,07,18,07,10,13.90
2018,07,18,07,11,13.90
2018,07,18,07,12,13.90
2018,07,18,07,13,13.90
2018,07,18,07,14,13.90
2018,07,18,07,15,13.90
2018,07,18,07,16,14.00
2018,07,18,07,17,14.00
2018,07,18,07,18,14.10
2018,07,18,07,19,14.10
2018,07,18,07,20,14.10
2018,07,18,07,21,14.20
2018,07,18,07,22,14.20
2018,07,18,07,23,14.20
2018,07,18,07,24,14.20
2018,07,18,07,25,14.30
2018,07,18,07,26,14.30
2018,07,18,07,27,14.30
2018,07,18,07,28,14.30
2018,07,18,07,29,14.30
2018,07,18,07,30,14.40
2018,07,18,07,31,14.40
2018,07,18,07,32,14.40
2018,07,18,07,33,14.40
2018,07,18,07,34,14.40
2018,07,18,07,35,14.50
2018,07,18,07,36,14.50
2018,07,18,07,37,14.50
2018,07,18,07,38,14.50
2018,07,18,07,39,14.50
2018,07,18,07,40,14.60
2018,07,18,07,41,14.60
2018,07,18,07,42,14.60
2018,07,18,07,43,14.60
2018,07,18,07,44,14.60
2018,07,18,07,45,14.60
2018,07,18,07,46,14.60
2018,07,18,07,47,14.60
2018,07,18,07,48,14.60
2018,07,18,07,49,14.60
2018,07,18,07,50,14.70
2018,07,18,07,51,14.70
2018,07,18,07,52,14.70
2018,07,18,07,53,14.70
2018,07,18,07,54,14.70
2018,07,18,07,55,14.70
2018,07,18,07,56,14.70
2018,07,18,07,57,14.70
2018,07,18,07,58,14.70
2018,07,18,07,59,14.70
2018,07,18,08,00,14.80
2018,07,18,08,01,14.80
2018,07,18,08,02,14.80
2018,07,18,08,03,14.80
2018,07,18,08,04,14.80
2018,07,18,08,05,14.90
2018,07,18,08,06,14.90
2018,07,18,08,07,14.90
2018,07,18,08,08,14.90
2018,07,18,08,09,15.00
2018,07,18,08,10,15.00
2018,07,18,08,11,15.00
2018,07,18,08,12,15.10
2018,07,18,08,13,15.10
2018,07,18,08,14,15.10
2018,07,18,08,15,15.10
2018,07,18,08,16,15.10
2018,07,18,08,17,15.10
2018,07,18,08,18,15.10
2018,07,18,08,19,15.10
2018,07,18,08,20,15.10
2018,07,18,08,21,15.10
2018,07,18,08,22,15.10
2018,07,18,08,23,15.10
2018,07,18,08,24,15.10
2018,07,18,08,25,15.10
2018,07,18,08,26,15.10
2018,07,18,08,27,15.10
2018,07,18,08,28,15.00
2018,07,18,08,29,15.00
2018,07,18,08,30,15.10
2018,07,18,08,31,15.10
2018,07,18,08,32,15.10
2018,07,18,08,33,15.10
2018,07,18,08,34,15.10
2018,07,18,08,35,15.10
2018,07,18,08,36,15.10
2018,07,18,08,37,15.10
2018,07,18,08,38,15.10
2018,07,18,08,39,15.10
2018,07,18,08,40,15.10
2018,07,18,08,41,15.10
2018,07,18,08,42,15.10
2018,07,18,08,43,15.10
2018,07,18,08,44,15.10
2018,07,18,08,45,15.10
2018,07,18,08,46,15.20
2018,07,18,08,47,15.20
2018,07,18,08,48,15.20
2018,07,18,08,49,15.20
2018,07,18,08,50,15.30
2018,07,18,08,51,15.30
2018,07,18,08,52,15.30
2018,07,18,08,53,15.30
2018,07,18,08,54,15.30
2018,07,18,08,55,15.40
2018,07,18,08,56,15.40
2018,07,18,08,57,15.40
2018,07,18,08,58,15.40
2018,07,18,08,59,15.40
2018,07,18,09,00,15.50
2018,07,18,09,01,15.50
2018,07,18,09,02,15.50
2018,07,18,09,03,15.60
2018,07,18,09,04,15.60
2018,07,18,09,05,15.60
2018,07,18,09,06,15.60
2018,07,18,09,07,15.60
2018,07,18,09,08,15.60
2018,07,18,09,09,15.70
2018,07,18,09,10,15.70
2018,07,18,09,11,15.70
2018,07,18,09,12,15.60
2018,07,18,09,13,15.60
2018,07,18,09,14,15.60
2018,07,18,09,15,15.60
2018,07,18,09,16,15.60
2018,07,18,09,17,15.60
2018,07,18,09,18,15.60
2018,07,18,09,19,15.60
2018,07,18,09,20,15.60
2018,07,18,09,21,15.50
2018,07,18,09,22,15.50
2018,07,18,09,23,15.50
2018,07,18,09,24,15.50
2018,07,18,09,25,15.40
2018,07,18,09,26,15.40
2018,07,18,09,27,15.40
2018,07,18,09,28,15.40
2018,07,18,09,29,15.30
2018,07,18,09,30,15.30
2018,07,18,09,31,15.30
2018,07,18,09,32,15.30
2018,07,18,09,33,15.30
2018,07,18,09,34,15.30
2018,07,18,09,35,15.30
2018,07,18,09,36,15.30
2018,07,18,09,37,15.30
2018,07,18,09,38,15.30
2018,07,18,09,39,15.30
2018,07,18,09,40,15.30
2018,07,18,09,41,15.30
2018,07,18,09,42,15.30
2018,07,18,09,43,15.30
2018,07,18,09,44,15.40
2018,07,18,09,45,15.40
2018,07,18,09,46,15.40
2018,07,18,09,47,15.40
2018,07,18,09,48,15.40
2018,07,18,09,49,15.40
2018,07,18,09,50,15.50
2018,07,18,09,51,15.50
2018,07,18,09,52,15.50
2018,07,18,09,53,15.50
2018,07,18,09,54,15.50
2018,07,18,09,55,15.50
2018,07,18,09,56,15.50
2018,07,18,09,57,15.50
2018,07,18,09,58,15.60
2018,07,18,09,59,15.60
2018,07,18,10,00,15.60
2018,07,18,10,01,15.70
2018,07,18,10,02,15.70
2018,07,18,10,03,15.70
2018,07,18,10,04,15.70
2018,07,18,10,05,15.80
2018,07,18,10,06,15.80
2018,07,18,10,07,15.80
2018,07,18,10,08,15.80
2018,07,18,10,09,15.80
2018,07,18,10,10,15.90
2018,07,18,10,11,15.90
2018,07,18,10,12,15.90
2018,07,18,10,13,15.90
2018,07,18,10,14,15.90
2018,07,18,10,15,15.90
2018,07,18,10,16,16.00
2018,07,18,10,17,16.00
2018,07,18,10,18,16.00
2018,07,18,10,19,16.00
2018,07,18,10,20,16.00
2018,07,18,10,21,16.00
2018,07,18,10,22,16.10
2018,07,18,10,23,16.10
2018,07,18,10,24,16.10
2018,07,18,10,25,16.10
2018,07,18,10,26,16.10
2018,07,18,10,27,16.10
2018,07,18,10,28,16.20
2018,07,18,10,29,16.20
2018,07,18,10,30,16.20
2018,07,18,10,31,16.20
2018,07,18,10,32,16.20
2018,07,18,10,33,16.30
2018,07,18,10,34,16.30
2018,07,18,10,35,16.30
2018,07,18,10,36,16.30
2018,07,18,10,37,16.30
2018,07,18,10,38,16.30
2018,07,18,10,39,16.30
2018,07,18,10,40,16.30
2018,07,18,10,41,16.30
2018,07,18,10,42,16.30
2018,07,18,10,43,16.30
2018,07,18,10,44,16.30
2018,07,18,10,45,16.30
2018,07,18,10,46,16.30
2018,07,18,10,47,16.30
2018,07,18,10,48,16.30
2018,07,18,10,49,16.30
2018,07,18,10,50,16.30
2018,07,18,10,51,16.30
2018,07,18,10,52,16.30
2018,07,18,10,53,16.30
2018,07,18,10,54,16.30
2018,07,18,10,55,16.30
2018,07,18,10,56,16.40
2018,07,18,10,57,16.40
2018,07,18,10,58,16.40
2018,07,18,10,59,16.40
2018,07,18,11,00,16.40
2018,07,18,11,01,16.40
2018,07,18,11,02,16.40
2018,07,18,11,03,16.30
2018,07,18,11,04,16.40
2018,07,18,11,05,16.40
2018,07,18,11,06,16.40
2018,07,18,11,07,16.40
2018,07,18,11,08,16.40
2018,07,18,11,09,16.50
2018,07,18,11,10,16.50
2018,07,18,11,11,16.50
2018,07,18,11,12,16.60
2018,07,18,11,13,16.60
2018,07,18,11,14,16.60
2018,07,18,11,15,16.60
2018,07,18,11,16,16.60
2018,07,18,11,17,16.60
2018,07,18,11,18,16.60
2018,07,18,11,19,16.60
2018,07,18,11,20,16.60
2018,07,18,11,21,16.60
2018,07,18,11,22,16.60
2018,07,18,11,23,16.60
2018,07,18,11,24,16.60
2018,07,18,11,25,16.60
2018,07,18,11,26,16.60
2018,07,18,11,27,16.60
2018,07,18,11,28,16.60
2018,07,18,11,29,16.70
2018,07,18,11,30,16.70
2018,07,18,11,31,16.70
2018,07,18,11,32,16.70
2018,07,18,11,33,16.70
2018,07,18,11,34,16.70
2018,07,18,11,35,16.80
2018,07,18,11,36,16.80
2018,07,18,11,37,16.80
2018,07,18,11,38,16.80
2018,07,18,11,39,16.80
2018,07,18,11,40,16.80
2018,07,18,11,41,16.80
2018,07,18,11,42,16.80
2018,07,18,11,43,16.90
2018,07,18,11,44,16.90
2018,07,18,11,45,16.90
2018,07,18,11,46,16.90
2018,07,18,11,47,16.90
2018,07,18,11,48,16.90
2018,07,18,11,49,16.90
2018,07,18,11,50,16.90
2018,07,18,11,51,16.90
2018,07,18,11,52,16.90
2018,07,18,11,53,16.90
2018,07,18,11,54,16.90
2018,07,18,11,55,17.00
2018,07,18,11,56,17.00
2018,07,18,11,57,17.10
2018,07,18,11,58,17.10
2018,07,18,11,59,17.20
2018,07,18,12,00,17.20
2018,07,18,12,01,17.20
2018,07,18,12,02,17.30
2018,07,18,12,03,17.30
2018,07,18,12,04,17.40
2018,07,18,12,05,17.40
2018,07,18,12,06,17.50
2018,07,18,12,07,17.60
2018,07,18,12,08,17.60
2018,07,18,12,09,17.60
2018,07,18,12,10,17.70
2018,07,18,12,11,17.70
2018,07,18,12,12,17.70
2018,07,18,12,13,17.70
2018,07,18,12,14,17.70
2018,07,18,12,15,17.70
2018,07,18,12,16,17.70
2018,07,18,12,17,17.70
2018,07,18,12,18,17.80
2018,07,18,12,19,17.80
2018,07,18,12,20,17.80
2018,07,18,12,21,17.80
2018,07,18,12,22,17.80
2018,07,18,12,23,17.80
2018,07,18,12,24,17.80
2018,07,18,12,25,17.90
2018,07,18,12,26,17.90
2018,07,18,12,27,17.90
2018,07,18,12,28,17.90
2018,07,18,12,29,17.90
2018,07,18,12,30,18.00
2018,07,18,12,31,18.00
2018,07,18,12,32,18.10
2018,07,18,12,33,18.10
2018,07,18,12,34,18.20
2018,07,18,12,35,18.20
2018,07,18,12,36,18.20
2018,07,18,12,37,18.30
2018,07,18,12,38,18.30
2018,07,18,12,39,18.30
2018,07,18,12,40,18.40
2018,07,18,12,41,18.40
2018,07,18,12,42,18.40
2018,07,18,12,43,18.40
2018,07,18,12,44,18.50
2018,07,18,12,45,18.50
2018,07,18,12,46,18.60
2018,07,18,12,47,18.60
2018,07,18,12,48,18.70
2018,07,18,12,49,18.80
2018,07,18,12,50,18.80
2018,07,18,12,51,18.90
2018,07,18,12,52,18.90
2018,07,18,12,53,19.00
2018,07,18,12,54,19.00
2018,07,18,12,55,19.00
2018,07,18,12,56,19.10
2018,07,18,12,57,19.10
2018,07,18,12,58,19.10
2018,07,18,12,59,19.00
2018,07,18,13,00,19.00
2018,07,18,13,01,19.00
2018,07,18,13,02,19.00
2018,07,18,13,03,19.00
2018,07,18,13,04,19.00
2018,07,18,13,05,19.00
2018,07,18,13,06,19.10
2018,07,18,13,07,19.10
2018,07,18,13,08,19.10
2018,07,18,13,09,19.10
2018,07,18,13,10,19.10
2018,07,18,13,11,19.10
2018,07,18,13,12,19.20
2018,07,18,13,13,19.20
2018,07,18,13,14,19.30
2018,07,18,13,15,19.30
2018,07,18,13,16,19.40
2018,07,18,13,17,19.50
2018,07,18,13,18,19.60
2018,07,18,13,19,19.70
2018,07,18,13,20,19.80
2018,07,18,13,21,19.90
2018,07,18,13,22,19.90
2018,07,18,13,23,19.90
2018,07,18,13,24,20.00
2018,07,18,13,25,20.00
2018,07,18,13,26,20.10
2018,07,18,13,27,20.10
2018,07,18,13,28,20.10
2018,07,18,13,29,20.10
2018,07,18,13,30,20.10
2018,07,18,13,31,20.20
2018,07,18,13,32,20.20
2018,07,18,13,33,20.30
2018,07,18,13,34,20.30
2018,07,18,13,35,20.40
2018,07,18,13,36,20.40
2018,07,18,13,37,20.50
2018,07,18,13,38,20.50
2018,07,18,13,39,20.50
2018,07,18,13,40,20.60
2018,07,18,13,41,20.60
2018,07,18,13,42,20.80
2018,07,18,13,43,20.80
2018,07,18,13,44,20.90
2018,07,18,13,45,20.90
2018,07,18,13,46,21.00
2018,07,18,13,47,21.10
2018,07,18,13,48,21.10
2018,07,18,13,49,21.10
2018,07,18,13,50,21.10
2018,07,18,13,51,21.20
2018,07,18,13,52,21.20
2018,07,18,13,53,21.20
2018,07,18,13,54,21.20
2018,07,18,13,55,21.20
2018,07,18,13,56,21.20
2018,07,18,13,57,21.10
2018,07,18,13,58,21.10
2018,07,18,13,59,21.00
2018,07,18,14,00,20.90
2018,07,18,14,01,20.90
2018,07,18,14,02,20.90
2018,07,18,14,03,20.90
2018,07,18,14,04,20.90
2018,07,18,14,05,20.90
2018,07,18,14,06,20.90
2018,07,18,14,07,20.90
2018,07,18,14,08,20.90
2018,07,18,14,09,20.90
2018,07,18,14,10,20.90
2018,07,18,14,11,20.90
2018,07,18,14,12,20.90
2018,07,18,14,13,20.80
2018,07,18,14,14,20.80
2018,07,18,14,15,20.80
2018,07,18,14,16,20.80
2018,07,18,14,17,20.80
2018,07,18,14,18,20.80
2018,07,18,14,19,20.90
2018,07,18,14,20,20.90
2018,07,18,14,21,20.90
2018,07,18,14,22,20.90
2018,07,18,14,23,20.80
2018,07,18,14,24,20.80
2018,07,18,14,25,20.80
2018,07,18,14,26,20.80
2018,07,18,14,27,20.80
2018,07,18,14,28,20.90
2018,07,18,14,29,20.90
2018,07,18,14,30,20.90
2018,07,18,14,31,20.90
2018,07,18,14,32,20.90
2018,07,18,14,33,20.90
2018,07,18,14,34,21.00
2018,07,18,14,35,21.00
2018,07,18,14,36,21.10
2018,07,18,14,37,21.10
2018,07,18,14,38,21.20
2018,07,18,14,39,21.30
2018,07,18,14,40,21.30
2018,07,18,14,41,21.40
2018,07,18,14,42,21.50
2018,07,18,14,43,21.50
2018,07,18,14,44,21.60
2018,07,18,14,45,21.60
2018,07,18,14,46,21.60
2018,07,18,14,47,21.60
2018,07,18,14,48,21.60
2018,07,18,14,49,21.60
2018,07,18,14,50,21.60
2018,07,18,14,51,21.60
2018,07,18,14,52,21.70
2018,07,18,14,53,21.70
2018,07,18,14,54,21.70
2018,07,18,14,55,21.70
2018,07,18,14,56,21.70
2018,07,18,14,57,21.70
2018,07,18,14,58,21.80
2018,07,18,14,59,21.80
2018,07,18,15,00,21.90
2018,07,18,15,01,22.00
2018,07,18,15,02,22.10
2018,07,18,15,03,22.10
2018,07,18,15,04,22.10
2018,07,18,15,05,22.20
2018,07,18,15,06,22.20
2018,07,18,15,07,22.20
2018,07,18,15,08,22.20
2018,07,18,15,09,22.20
2018,07,18,15,10,22.20
2018,07,18,15,11,22.20
2018,07,18,15,12,22.20
2018,07,18,15,13,22.20
2018,07,18,15,14,22.20
2018,07,18,15,15,22.20
2018,07,18,15,16,22.20
2018,07,18,15,17,22.30
2018,07,18,15,18,22.30
2018,07,18,15,19,22.30
2018,07,18,15,20,22.20
2018,07,18,15,21,22.20
2018,07,18,15,22,22.20
2018,07,18,15,23,22.20
2018,07,18,15,24,22.20
2018,07,18,15,25,22.20
2018,07,18,15,26,22.30
2018,07,18,15,27,22.30
2018,07,18,15,28,22.40
2018,07,18,15,29,22.40
2018,07,18,15,30,22.40
2018,07,18,15,31,22.40
2018,07,18,15,32,22.40
2018,07,18,15,33,22.40
2018,07,18,15,34,22.30
2018,07,18,15,35,22.40
2018,07,18,15,36,22.40
2018,07,18,15,37,22.50
2018,07,18,15,38,22.60
2018,07,18,15,39,22.60
2018,07,18,15,40,22.70
2018,07,18,15,41,22.80
2018,07,18,15,42,22.80
2018,07,18,15,43,22.80
2018,07,18,15,44,22.90
2018,07,18,15,45,22.90
2018,07,18,15,46,23.00
2018,07,18,15,47,23.00
2018,07,18,15,48,23.10
2018,07,18,15,49,23.10
2018,07,18,15,50,23.20
2018,07,18,15,51,23.20
2018,07,18,15,52,23.20
2018,07,18,15,53,23.20
2018,07,18,15,54,23.30
2018,07,18,15,55,23.30
2018,07,18,15,56,23.40
2018,07,18,15,57,23.40
2018,07,18,15,58,23.50
2018,07,18,15,59,23.50
2018,07,18,16,00,23.60
2018,07,18,16,01,23.60
2018,07,18,16,02,23.70
2018,07,18,16,03,23.80
2018,07,18,16,04,23.80
2018,07,18,16,05,23.90
2018,07,18,16,06,23.90
2018,07,18,16,07,24.00
2018,07,18,16,08,24.00
2018,07,18,16,09,23.90
2018,07,18,16,10,23.90
2018,07,18,16,11,23.90
2018,07,18,16,12,23.90
2018,07,18,16,13,23.90
2018,07,18,16,14,23.90
2018,07,18,16,15,23.90
2018,07,18,16,16,23.90
2018,07,18,16,17,23.90
2018,07,18,16,18,23.90
2018,07,18,16,19,23.90
2018,07,18,16,20,23.80
2018,07,18,16,21,23.80
2018,07,18,16,22,23.80
2018,07,18,16,23,23.80
2018,07,18,16,24,23.80
2018,07,18,16,25,23.80
2018,07,18,16,26,23.90
2018,07,18,16,27,23.90
2018,07,18,16,28,23.90
2018,07,18,16,29,24.00
2018,07,18,16,30,24.00
2018,07,18,16,31,24.10
2018,07,18,16,32,24.10
2018,07,18,16,33,24.10
2018,07,18,16,34,24.10
2018,07,18,16,35,24.00
2018,07,18,16,36,24.00
2018,07,18,16,37,23.90
2018,07,18,16,38,23.70
2018,07,18,16,39,23.70
2018,07,18,16,40,23.60
2018,07,18,16,41,23.60
2018,07,18,16,42,23.60
2018,07,18,16,43,23.70
2018,07,18,16,44,23.70
2018,07,18,16,45,23.80
2018,07,18,16,46,23.80
2018,07,18,16,47,23.90
2018,07,18,16,48,23.90
2018,07,18,16,49,24.00
2018,07,18,16,50,24.00
2018,07,18,16,51,24.10
2018,07,18,16,52,24.10
2018,07,18,16,53,24.10
2018,07,18,16,54,24.20
2018,07,18,16,55,24.20
2018,07,18,16,56,24.20
2018,07,18,16,57,24.20
2018,07,18,16,58,24.20
2018,07,18,16,59,24.20
2018,07,18,17,00,24.10
2018,07,18,17,01,24.10
2018,07,18,17,02,24.10
2018,07,18,17,03,24.10
2018,07,18,17,04,24.10
2018,07,18,17,05,24.10
2018,07,18,17,06,24.20
2018,07,18,17,07,24.20
2018,07,18,17,08,24.20
2018,07,18,17,09,24.30
2018,07,18,17,10,24.30
2018,07,18,17,11,24.40
2018,07,18,17,12,24.40
2018,07,18,17,13,24.40
2018,07,18,17,14,24.40
2018,07,18,17,15,24.40
2018,07,18,17,16,24.40
2018,07,18,17,17,24.40
2018,07,18,17,18,24.40
2018,07,18,17,19,24.40